Flag for Germany Weather past 2 weeks in Bayreuth, Bavaria, Germany

Now
73 °F

Scattered clouds.


Feels Like: 77 °F
Forecast: 51 / 73 °F
Wind: 2 mph from North

Location: Grafenwoehr

Current Time: Sep 16, 2014 at 3:40:29 PM

Latest Report: Sep 16, 2014 at 2:58 PM


Visibility: N/A

Pressure: 30.00 "Hg

Humidity: 50%

Dew point: 54 °F

Location of BayreuthLocation

Historic Weather in Bayreuth — Graph

°F

Bayreuth temperature yesterday

Maximum temperature yesterday: 72 °F (at 3:58 PM)
Minimum temperature yesterday: 54 °F (at 11:58 PM)
Average temperature yesterday: 62 °F

Past Weeks' High & Low Weather Summary

 TemperatureHumidityPressure
High77 °F (Sep 5, 3:58 PM)100% (Sep 2, 12:58 AM)30.17 "Hg (Sep 2, 12:58 AM)
Low41 °F (Sep 11, 6:58 AM)35% (Sep 9, 12:58 PM)29.87 "Hg (Sep 6, 4:58 PM)
Average60 °F85%30.03 "Hg
* Reported Sep 1 1:00 PM — Sep 16 1:58 PM, Bayreuth, Weather by CustomWeather, © 2014

Note: Actual official high and low records may vary slightly from our data, if they occured in-between our weather recording intervals... More about our weather records

Advertising

Bayreuth weather history for previous 24 hours

 ConditionsComfort  
Time TempWeatherWind HumidityBarometerVisibility
1:58 PM
Sep 16
70 °FPartly sunny.2 mph60%30.01 "HgN/A
12:58 PM70 °FScattered clouds.5 mph57%30.03 "HgN/A
11:58 AM70 °FPassing clouds.2 mph57%30.03 "HgN/A
10:58 AM66 °FSunny.1 mph64%30.05 "HgN/A
9:58 AM64 °FScattered clouds.2 mph73%30.05 "HgN/A
8:58 AM59 °FScattered clouds.No wind88%30.04 "HgN/A
7:58 AM50 °FOvercast.No wind94%30.05 "HgN/A
6:58 AM46 °FPassing clouds.No wind100%30.05 "HgN/A
5:58 AM48 °FPassing clouds.No wind100%30.03 "HgN/A
4:58 AM48 °FPassing clouds.No wind100%30.03 "HgN/A
3:58 AM50 °FClear.No wind100%30.03 "HgN/A
2:58 AM50 °FClear.No wind100%30.03 "HgN/A
1:58 AM52 °FClear.No wind94%30.03 "HgN/A
12:58 AM54 °FClear.No wind94%30.03 "HgN/A
11:58 PM
Sep 15
54 °FClear.No wind94%30.03 "HgN/A
10:58 PM56 °FClear.No wind92%30.03 "HgN/A
9:58 PM57 °FClear.No wind88%30.03 "HgN/A
8:58 PM59 °FPassing clouds.1 mph82%30.01 "HgN/A
7:58 PM61 °FSunny.No wind77%30.01 "HgN/A
6:58 PM67 °FSunny.No wind65%30.01 "HgN/A
5:58 PM70 °FSunny.3 mph57%30.01 "HgN/A
4:58 PM71 °FPassing clouds.2 mph56%30.01 "HgN/A
3:58 PM72 °FSunny.8 mph53%30.01 "HgN/A
Weather by CustomWeather, © 2014

See weather overviewHow to use our weather pages